Retour au catalogue

SKYCRAFT 4E

ActifScienceSSO
NORAD 65227·PAYLOAD·🇦🇺 Australia

Lancé Jul 23, 2025 depuis Vandenberg Space Force Base

Loading…

Prochains Passages (prochaines 24 heures)

TLE

FraisSource: Space-Track

Époque: Sep 14, 2026, 14:30 UTC

1 65227U 25154L   26257.60436157  .00005087  00000-0  42584-3 0  9999
2 65227  97.6620 320.8441 0003903 350.6441   9.4708 14.98880487 60724

Suivez SKYCRAFT 4E en temps réel avec AllMySat

Download on the App Store